Weather History for KJAS - December, 2012

Change the Weather History Date:

Sunday, December 9, 2012

  Actual Average (KLFK) Record (KLFK)
Temperature  
Mean Temperature 72 °F 51 °F  
Max Temperature 78 °F 62 °F 85 °F (1945)
Min Temperature 66 °F 40 °F 15 °F (1917)
Degree Days  
Heating Degree Days 0 14  
Month to date heating degree days 120  
Since 1 July heating degree days 427  
Cooling Degree Days 7 0  
Month to date cooling degree days 4  
Year to date cooling degree days 2587  
Growing Degree Days 22 (Base 50)    
Moisture  
Dew Point 67 °F    
Average Humidity 86    
Maximum Humidity 97    
Minimum Humidity 66    
Precipitation  
Precipitation 0.00 in 0.14 in 2.25 in (1926)
Month to date precipitation 1.38  
Year to date precipitation 45.89  
Snow  
Snow 0.00 in - - ()
Month to date snowfall  
Since 1 July snowfall  
Snow Depth -    
Sea Level Pressure  
Sea Level Pressure 29.89 in    
Wind  
Wind Speed 5 mph (South)    
Max Wind Speed 15 mph    
Max Gust Speed 23 mph    
Visibility 7 miles    
Events Fog    
T = Trace of Precipitation, MM = Missing Value Source: NWS Daily Summary

Daily Weather History Graph

Daily Weather History Graph

Search for Another Location

Airport or City:

Trip Planner

Search our weather history database for the weather conditions in past years. The results will help you decide how hot, cold, wet, or windy it might be!

Date:

Astronomy

Dec. 09, 2012 Rise Set
Actual Time 7:02 AM CST 5:14 PM CST
Civil Twilight 6:36 AM CST 5:41 PM CST
Nautical Twilight 6:06 AM CST 6:11 PM CST
Astronomical Twilight 5:36 AM CST 6:40 PM CST
Moon 2:48 AM CST (12/9) 2:11 PM CST (12/9)
Length of Visible Light 11h 04m
Length of Day
10h 11m
Waning Crescent, 18% of the Moon is Illuminated
Dec 9
Waning Crescent
Dec 13
New
Dec 19
First Quarter
Dec 28
Full
Jan 4
Last Quarter

Hourly Weather History & Observations

Time (CST) Temp. Dew Point Humidity Pressure Visibility Wind Dir Wind Speed Gust Speed Precip Events Conditions
12:15 AM 67.5 °F 65.8 °F 95% 29.92 in 4.0 mi SSE 4.6 mph - N/A   Overcast
12:35 AM 67.3 °F 65.7 °F 95% 29.91 in 4.0 mi SSE 3.5 mph - N/A   Overcast
1:15 AM 66.6 °F 65.3 °F 96% 29.91 in 5.0 mi SSE 3.5 mph - N/A   Overcast
1:35 AM 66.6 °F 65.3 °F 96% 29.91 in 7.0 mi South 3.5 mph - N/A   Overcast
1:55 AM 66.7 °F 65.3 °F 95% 29.91 in 5.0 mi SSE 3.5 mph - N/A   Overcast
2:15 AM 66.7 °F 65.3 °F 95% 29.90 in 7.0 mi South 3.5 mph - N/A   Overcast
2:35 AM 66.9 °F 65.5 °F 95% 29.90 in 7.0 mi SSE 3.5 mph - N/A   Overcast
2:55 AM 67.1 °F 65.5 °F 95% 29.90 in 7.0 mi SE 3.5 mph - N/A   Overcast
3:15 AM 67.1 °F 65.5 °F 95% 29.90 in 5.0 mi Calm Calm - N/A   Overcast
3:35 AM 67.1 °F 65.5 °F 95% 29.90 in 4.0 mi South 4.6 mph - N/A   Overcast
3:55 AM 67.1 °F 65.5 °F 95% 29.90 in 4.0 mi SSE 3.5 mph - N/A   Overcast
4:15 AM 67.1 °F 65.7 °F 95% 29.90 in 5.0 mi SSE 3.5 mph - N/A   Overcast
4:35 AM 67.1 °F 65.8 °F 96% 29.91 in 5.0 mi South 5.8 mph - N/A   Overcast
4:55 AM 67.1 °F 65.7 °F 95% 29.91 in 3.0 mi South 4.6 mph - N/A   Overcast
5:15 AM 67.1 °F 65.7 °F 95% 29.91 in 2.5 mi South 4.6 mph - N/A   Overcast
5:35 AM 67.1 °F 65.7 °F 95% 29.92 in 2.5 mi South 5.8 mph - N/A   Overcast
5:55 AM 66.7 °F 65.7 °F 96% 29.93 in 1.2 mi South 5.8 mph - N/A   Overcast
6:15 AM 66.7 °F 65.7 °F 96% 29.93 in 1.0 mi South 3.5 mph - N/A   Overcast
6:35 AM 66.7 °F 65.7 °F 96% 29.93 in 0.8 mi Calm Calm - N/A   Overcast
6:55 AM 66.7 °F 65.7 °F 96% 29.94 in 0.8 mi South 4.6 mph - N/A   Overcast
7:15 AM 66.7 °F 65.7 °F 96% 29.94 in 0.2 mi South 3.5 mph - N/A Fog Fog
7:35 AM 66.7 °F 65.7 °F 96% 29.94 in 0.2 mi Calm Calm - N/A Fog Fog
7:55 AM 67.1 °F 65.8 °F 96% 29.94 in 0.5 mi Calm Calm - N/A Fog Fog
8:15 AM 67.1 °F 66.2 °F 97% 29.94 in 0.5 mi South 3.5 mph - N/A Fog Fog
8:35 AM 67.6 °F 66.4 °F 96% 29.95 in 1.0 mi South 4.6 mph - N/A   Overcast
8:55 AM 68.2 °F 67.1 °F 96% 29.95 in 3.0 mi South 5.8 mph - N/A   Overcast
9:35 AM 68.7 °F 67.6 °F 96% 29.96 in 7.0 mi South 6.9 mph - N/A   Overcast
9:55 AM 68.9 °F 67.8 °F 96% 29.96 in 10.0 mi South 9.2 mph - N/A   Overcast
10:35 AM 70.2 °F 68.0 °F 93% 29.96 in 10.0 mi SSW 10.4 mph - N/A   Overcast
10:55 AM 71.4 °F 68.0 °F 89% 29.95 in 10.0 mi SSW 9.2 mph - N/A   Overcast
11:15 AM 73.4 °F 68.2 °F 84% 29.94 in 10.0 mi SSW 9.2 mph - N/A   Mostly Cloudy
11:35 AM 73.6 °F 67.8 °F 82% 29.93 in 10.0 mi SSW 8.1 mph - N/A   Mostly Cloudy
11:55 AM 74.8 °F 68.0 °F 79% 29.93 in 10.0 mi SSW 9.2 mph - N/A   Mostly Cloudy
12:15 PM 76.1 °F 67.8 °F 75% 29.91 in 10.0 mi SW 6.9 mph - N/A   Mostly Cloudy
12:35 PM 76.8 °F 67.3 °F 72% 29.90 in 10.0 mi South 10.4 mph - N/A   Scattered Clouds
12:55 PM 78.3 °F 66.9 °F 68% 29.88 in 10.0 mi South 9.2 mph - N/A   Scattered Clouds
1:15 PM 77.9 °F 66.4 °F 68% 29.88 in 10.0 mi SSW 9.2 mph 17.3 mph N/A   Mostly Cloudy
1:35 PM 78.3 °F 66.2 °F 66% 29.87 in 10.0 mi SSW 6.9 mph - N/A   Overcast
1:55 PM 78.4 °F 66.4 °F 66% 29.86 in 10.0 mi SSW 6.9 mph - N/A   Overcast
2:15 PM 78.8 °F 66.6 °F 66% 29.86 in 10.0 mi South 5.8 mph - N/A   Mostly Cloudy
2:35 PM 78.6 °F 67.1 °F 68% 29.86 in 10.0 mi South 8.1 mph - N/A   Scattered Clouds
2:55 PM 78.6 °F 67.3 °F 68% 29.85 in 10.0 mi South 8.1 mph - N/A   Scattered Clouds
3:15 PM 78.4 °F 67.5 °F 69% 29.85 in 10.0 mi SSE 4.6 mph - N/A   Scattered Clouds
3:35 PM 77.9 °F 67.6 °F 71% 29.85 in 10.0 mi Calm Calm - N/A   Scattered Clouds
3:55 PM 77.9 °F 67.8 °F 71% 29.84 in 10.0 mi South 5.8 mph - N/A   Scattered Clouds
4:15 PM 77.2 °F 67.8 °F 73% 29.84 in 10.0 mi South 5.8 mph - N/A   Scattered Clouds
4:35 PM 77.0 °F 68.0 °F 74% 29.84 in 10.0 mi South 6.9 mph - N/A   Mostly Cloudy
4:55 PM 76.5 °F 68.0 °F 75% 29.83 in 10.0 mi South 9.2 mph - N/A   Scattered Clouds
5:15 PM 75.9 °F 68.0 °F 76% 29.82 in 10.0 mi South 8.1 mph - N/A   Clear
5:35 PM 75.2 °F 68.0 °F 78% 29.82 in 10.0 mi SSE 4.6 mph - N/A   Scattered Clouds
5:55 PM 74.5 °F 68.2 °F 81% 29.83 in 10.0 mi South 6.9 mph - N/A   Mostly Cloudy
6:15 PM 74.5 °F 68.5 °F 82% 29.83 in 10.0 mi South 6.9 mph - N/A   Mostly Cloudy
6:35 PM 74.3 °F 68.5 °F 82% 29.83 in 10.0 mi South 5.8 mph - N/A   Mostly Cloudy
6:55 PM 74.3 °F 68.5 °F 82% 29.83 in 10.0 mi South 9.2 mph - N/A   Mostly Cloudy
7:15 PM 74.3 °F 68.2 °F 81% 29.83 in 10.0 mi South 10.4 mph 21.9 mph N/A   Scattered Clouds
7:35 PM 74.3 °F 68.0 °F 81% 29.83 in 10.0 mi South 15.0 mph 20.7 mph N/A   Clear
7:55 PM 73.9 °F 68.0 °F 82% 29.84 in 10.0 mi South 9.2 mph - N/A   Scattered Clouds
8:15 PM 73.9 °F 68.2 °F 82% 29.85 in 10.0 mi South 9.2 mph - N/A   Overcast
8:35 PM 73.8 °F 68.5 °F 84% 29.85 in 10.0 mi South 10.4 mph - N/A   Overcast
8:55 PM 73.6 °F 68.9 °F 85% 29.85 in 10.0 mi South 10.4 mph - N/A   Overcast
9:15 PM 73.4 °F 68.9 °F 86% 29.86 in 10.0 mi SSW 8.1 mph - N/A   Overcast
9:35 PM 73.4 °F 68.9 °F 86% 29.87 in 10.0 mi SSW 11.5 mph - N/A   Overcast
9:55 PM 73.4 °F 68.9 °F 86% 29.86 in 10.0 mi South 8.1 mph - N/A   Overcast
10:15 PM 73.0 °F 68.9 °F 87% 29.86 in 10.0 mi South 6.9 mph - N/A   Overcast
10:35 PM 72.7 °F 68.9 °F 88% 29.86 in 10.0 mi SSW 6.9 mph - N/A   Mostly Cloudy
10:55 PM 72.3 °F 68.7 °F 88% 29.86 in 10.0 mi SSW 8.1 mph - N/A   Mostly Cloudy
11:15 PM 72.3 °F 68.9 °F 89% 29.87 in 10.0 mi SW 6.9 mph - N/A   Mostly Cloudy
11:35 PM 72.3 °F 68.7 °F 88% 29.87 in 10.0 mi SSW 5.8 mph - N/A   Overcast
11:55 PM 70.2 °F 65.8 °F 86% 29.85 in 10.0 mi NNW 15.0 mph 23.0 mph N/A   Overcast